Location: Croisilles
(50.1998°N, 2.8793°E)
Time: 12:48:38
(UTC+00:00)

ISS - Pass Details

Date: 21 January 2021
Orbit: 417 x 422 km, 51.6° (Epoch: 27 February)

Event Time Altitude Azimuth Distance (km) Brightness Sun altitude
Rises 18:26:46 0° 232° (SW) 2,365 1.1 -19.2°
Reaches altitude 10° 18:28:55 10° 226° (SW) 1,504 -0.2 -19.6°
Enters shadow 18:31:51 43° 170° (S) 604 -3.1 -20.1°
